Hilton Head Island, SC

4:14 PM EST on December 11, 2017 (GMT -0500)
Hilton Head

Weather History for KHXD - November, 2012

Change the Weather History Date:

Thursday, November 8, 2012

  Actual Average Record
Temperature  
Mean Temperature 53 °F -  
Max Temperature 64 °F 68 °F 85 °F (1986)
Min Temperature 42 °F 48 °F 31 °F (1954)
Degree Days  
Heating Degree Days 12    
Growing Degree Days 3 (Base 50)    
Moisture  
Dew Point 41 °F    
Average Humidity 79    
Maximum Humidity 100    
Minimum Humidity 32    
Precipitation  
Precipitation 0.00 in - - ()
Sea Level Pressure  
Sea Level Pressure 30.10 in    
Wind  
Wind Speed 4 mph (WNW)    
Max Wind Speed 9 mph    
Max Gust Speed 16 mph    
Visibility 9 miles    
Events      
Averages and records for this station are not official NWS values.
T = Trace of Precipitation, MM = Missing Value Source: NWS Daily Summary

Daily Weather History Graph

Daily Weather History Graph

Search for Another Location

Airport or City:

Trip Planner

Search our weather history database for the weather conditions in past years. The results will help you decide how hot, cold, wet, or windy it might be!

Date:

Astronomy

Nov. 08, 2012 Rise Set
Actual Time 6:46 AM EST 5:26 PM EST
Civil Twilight 6:20 AM EST 5:52 PM EST
Nautical Twilight 5:51 AM EST 6:21 PM EST
Astronomical Twilight 5:22 AM EST 6:50 PM EST
Moon 12:59 AM EST (11/8) 1:49 PM EST (11/8)
Length of Visible Light 11h 31m
Length of Day
10h 40m
Waning Crescent, 33% of the Moon is Illuminated
Nov 8
Waning Crescent
Nov 13
New
Nov 20
First Quarter
Nov 28
Full
Dec 6
Last Quarter

Hourly Weather History & Observations

Time (EST) Temp. Windchill Dew Point Humidity Pressure Visibility Wind Dir Wind Speed Gust Speed Precip Events Conditions
12:15 AM 44.6 °F 43.1 °F 42.8 °F 93% 30.00 in 10.0 mi NW 3.5 mph - 0.00 in   Clear
12:35 AM 44.6 °F 43.1 °F 42.8 °F 93% 30.01 in 10.0 mi NW 3.5 mph - 0.00 in   Clear
12:55 AM 44.6 °F 42.2 °F 42.8 °F 93% 30.01 in 10.0 mi NW 4.6 mph - 0.00 in   Clear
1:15 AM 44.6 °F - 42.8 °F 93% 30.01 in 10.0 mi Calm Calm - 0.00 in   Clear
1:35 AM 44.6 °F 43.1 °F 42.8 °F 93% 30.02 in 8.0 mi NW 3.5 mph - 0.00 in   Clear
1:55 AM 44.6 °F 42.2 °F 42.8 °F 93% 30.02 in 8.0 mi NW 4.6 mph - 0.00 in   Clear
2:15 AM 44.6 °F 43.1 °F 42.8 °F 93% 30.01 in 8.0 mi WNW 3.5 mph - 0.00 in   Clear
2:35 AM 44.6 °F 43.1 °F 42.8 °F 93% 30.02 in 7.0 mi WNW 3.5 mph - 0.00 in   Clear
2:55 AM 44.6 °F 43.1 °F 42.8 °F 93% 30.02 in 7.0 mi WNW 3.5 mph - 0.00 in   Clear
3:15 AM 44.6 °F 43.1 °F 42.8 °F 93% 30.02 in 7.0 mi West 3.5 mph - 0.00 in   Clear
3:35 AM 42.8 °F 40.1 °F 42.8 °F 100% 30.02 in 5.0 mi West 4.6 mph - 0.00 in   Clear
3:55 AM 42.8 °F 40.1 °F 42.8 °F 100% 30.03 in 5.0 mi West 4.6 mph - 0.00 in   Clear
4:15 AM 44.6 °F 43.1 °F 42.8 °F 93% 30.03 in 5.0 mi WNW 3.5 mph - 0.00 in   Clear
4:35 AM 42.8 °F 40.1 °F 42.8 °F 100% 30.04 in 5.0 mi NW 4.6 mph - 0.00 in   Clear
4:55 AM 42.8 °F 40.1 °F 42.8 °F 100% 30.04 in 4.0 mi West 4.6 mph - 0.00 in   Clear
5:15 AM 44.6 °F 42.2 °F 42.8 °F 93% 30.05 in 5.0 mi WNW 4.6 mph - 0.00 in   Clear
5:35 AM 44.6 °F 42.2 °F 42.8 °F 93% 30.05 in 5.0 mi NW 4.6 mph - 0.00 in   Clear
6:50 AM 44.6 °F - 42.8 °F 93% 30.08 in 10.0 mi Calm Calm - N/A   Clear
7:50 AM 46.4 °F 42.9 °F 42.8 °F 87% 30.11 in 10.0 mi North 6.9 mph - N/A   Clear
8:50 AM 50.0 °F - 42.8 °F 76% 30.14 in 10.0 mi North 9.2 mph - N/A   Clear
9:50 AM 51.8 °F - 44.6 °F 76% 30.14 in 10.0 mi North 8.1 mph - N/A   Clear
10:50 AM 57.2 °F - 41.0 °F 55% 30.14 in 10.0 mi North 6.9 mph 16.1 mph N/A   Clear
11:50 AM 57.2 °F - 39.2 °F 51% 30.13 in 8.0 mi North 9.2 mph - N/A   Clear
12:50 PM 60.8 °F - 37.4 °F 42% 30.11 in 10.0 mi NNW 6.9 mph 16.1 mph N/A   Clear
1:50 PM 60.8 °F - 37.4 °F 42% 30.10 in 10.0 mi North 9.2 mph 16.1 mph N/A   Clear
2:50 PM 64.4 °F - 35.6 °F 34% 30.08 in 10.0 mi NNW 6.9 mph 16.1 mph N/A   Clear
3:50 PM 64.4 °F - 33.8 °F 32% 30.10 in 10.0 mi NNW 3.5 mph - N/A   Clear
4:50 PM 62.6 °F - 33.8 °F 34% 30.11 in 10.0 mi WNW 3.5 mph - N/A   Clear
5:50 PM 55.4 °F - 41.0 °F 58% 30.12 in 10.0 mi Calm Calm - N/A   Clear
6:50 PM 53.6 °F - 41.0 °F 62% 30.15 in 10.0 mi Calm Calm - N/A   Clear
7:50 PM 55.4 °F - 37.4 °F 51% 30.16 in 10.0 mi West 4.6 mph - N/A   Clear
8:15 PM 46.4 °F 45.2 °F 41.0 °F 81% 30.16 in 10.0 mi WSW 3.5 mph - 0.00 in   Clear
8:35 PM 44.6 °F 42.2 °F 41.0 °F 87% 30.16 in 10.0 mi WSW 4.6 mph - 0.00 in   Clear
8:55 PM 44.6 °F 43.1 °F 41.0 °F 87% 30.17 in 10.0 mi West 3.5 mph - 0.00 in   Clear
9:15 PM 44.6 °F 43.1 °F 41.0 °F 87% 30.17 in 10.0 mi West 3.5 mph - 0.00 in   Clear
9:35 PM 44.6 °F 43.1 °F 41.0 °F 87% 30.17 in 10.0 mi WSW 3.5 mph - 0.00 in   Clear
9:55 PM 44.6 °F 43.1 °F 39.2 °F 81% 30.17 in 9.0 mi WSW 3.5 mph - 0.00 in   Clear
10:15 PM 44.6 °F 43.1 °F 39.2 °F 81% 30.17 in 10.0 mi WSW 3.5 mph - 0.00 in   Clear
10:35 PM 44.6 °F 42.2 °F 39.2 °F 81% 30.17 in 10.0 mi West 4.6 mph - 0.00 in   Clear
10:55 PM 44.6 °F 43.1 °F 39.2 °F 81% 30.17 in 10.0 mi West 3.5 mph - 0.00 in   Clear
11:15 PM 44.6 °F 41.4 °F 39.2 °F 81% 30.17 in 10.0 mi West 5.8 mph - 0.00 in   Clear
11:35 PM 44.6 °F 42.2 °F 39.2 °F 81% 30.17 in 10.0 mi West 4.6 mph - 0.00 in   Clear
11:55 PM 44.6 °F 43.1 °F 39.2 °F 81% 30.17 in 10.0 mi WSW 3.5 mph - 0.00 in   Clear